Flag for Germany Weather past 2 weeks in Schwäbisch Hall, Baden-Württemberg, Germany

Now
42 °F

Overcast.


Feels Like: 38 °F
Forecast: 36 / 53 °F
Wind: 6 mph from West

Location: Oehringen

Current Time: Mar 27, 2015 at 8:49:44 AM

Latest Report: Mar 27, 2015 at 8:00 AM


Visibility: 5 mi

Pressure: 30.02 "Hg

Humidity: 85%

Dew point: 38 °F

Location of Schwäbisch HallLocation

Historic Weather in Schwäbisch Hall — Graph

°F

Schwäbisch Hall temperature yesterday

Maximum temperature yesterday: 47 °F (at 6:00 PM)
Minimum temperature yesterday: 40 °F (at 10:00 PM)
Average temperature yesterday: 44 °F

Past Weeks' High & Low Weather Summary

 TemperatureHumidityPressure
High67 °F (Mar 17, 3:00 PM)95% (Mar 24, 3:00 AM)30.48 "Hg (Mar 24, 3:00 AM)
Low30 °F (Mar 24, 6:00 AM)30% (Mar 17, 4:00 PM)29.55 "Hg (Mar 25, 4:00 PM)
Average45 °F68%30.11 "Hg
* Reported Mar 12 8:00 AM — Mar 27 8:00 AM, Schwäbisch Hall, Weather by CustomWeather, © 2015

Note: Actual official high and low records may vary slightly from our data, if they occured in-between our weather recording intervals... More about our weather records

Advertising

Schwäbisch Hall weather history for previous 24 hours

 ConditionsComfort  
Time TempWeatherWind HumidityBarometerVisibility
8:00 AM
Fri, Mar 27
42 °FOvercast.6 mph85%30.02 "Hg5 mi
7:00 AM41 °FOvercast.6 mph89%30.00 "Hg5 mi
6:00 AM42 °FLow clouds.3 mph91%29.97 "Hg4 mi
5:00 AM42 °FLow clouds.5 mph89%29.95 "Hg4 mi
4:00 AM42 °FOvercast.7 mph88%29.93 "Hg4 mi
3:00 AM41 °FOvercast.5 mph89%29.93 "Hg5 mi
2:00 AM41 °FOvercast.6 mph89%29.92 "Hg6 mi
1:00 AM41 °FLight freezing rain. Overcast.5 mph91%29.90 "Hg4 mi
12:00 AM41 °FDrizzle. Overcast.5 mph91%29.90 "Hg4 mi
11:00 PM
Thu, Mar 26
40 °FOvercast.3 mph91%29.90 "Hg4 mi
10:00 PM40 °FLight rain. Overcast.6 mph89%29.90 "Hg4 mi
9:00 PM46 °FLight rain. Overcast.3 mph67%29.85 "Hg6 mi
8:00 PM46 °FOvercast.2 mph64%29.84 "Hg7 mi
7:00 PM46 °FOvercast.3 mph61%29.83 "Hg9 mi
6:00 PM47 °FOvercast.3 mph64%29.82 "Hg7 mi
5:00 PM47 °FOvercast.3 mph62%29.81 "Hg9 mi
4:00 PM47 °FOvercast.5 mph62%29.82 "Hg7 mi
3:00 PM46 °FOvercast.5 mph72%29.82 "Hg4 mi
2:00 PM45 °FOvercast.5 mph75%29.83 "Hg4 mi
1:00 PM44 °FOvercast.6 mph75%29.84 "Hg3 mi
12:00 PM44 °FOvercast.5 mph78%29.84 "Hg3 mi
11:00 AM44 °FOvercast.6 mph78%29.84 "Hg3 mi
10:00 AM44 °FOvercast.6 mph79%29.83 "Hg2 mi
9:00 AM43 °FFog.5 mph81%29.83 "Hg2 mi
8:00 AM42 °FFog.6 mph80%29.82 "Hg2 mi
Weather by CustomWeather, © 2015

See weather overviewHow to use our weather pages